Date,TemperatureHighF,TemperatureAvgF,TemperatureLowF,DewpointHighF,DewpointAvgF,DewpointLowF,HumidityHigh,HumidityAvg,HumidityLow,PressureMaxIn,PressureMinIn,WindSpeedMaxMPH,WindSpeedAvgMPH,GustSpeedMaxMPH,PrecipitationSumIn
2013-1-1,51.3,48.2,39.2,51.0,47.4,38.9,99,97,78,29.92,29.79,8,2,21,0.85
2013-1-2,39.2,35.6,33.3,38.9,35.4,33.0,99,99,99,30.04,29.89,8,3,20,0.00
2013-1-3,47.3,35.3,29.3,33.2,30.0,25.4,100,83,46,30.21,30.00,6,2,18,0.00
2013-1-4,53.4,33.7,26.4,30.8,25.8,20.2,100,76,28,30.27,30.18,5,1,14,0.00
2013-1-5,54.7,38.4,27.3,38.9,29.7,24.6,100,76,33,30.24,30.09,5,1,11,0.06
2013-1-6,54.7,42.4,35.2,41.5,37.6,33.1,99,85,51,30.15,30.03,6,2,17,0.02
2013-1-7,61.2,40.2,28.4,34.2,31.2,27.8,100,75,29,30.22,30.11,6,1,11,0.04
2013-1-8,63.9,47.2,35.4,47.2,39.5,29.8,95,76,49,30.19,30.08,4,1,12,0.00
2013-1-9,55.6,52.4,48.0,55.3,51.8,46.5,100,98,91,30.24,30.13,3,0,8,0.30
2013-1-10,65.1,59.2,54.1,65.0,59.0,53.9,100,99,95,30.21,29.90,8,1,21,0.06
2013-1-11,65.7,64.2,62.2,65.4,63.7,62.0,100,98,92,29.99,29.91,12,8,24,0.05
2013-1-12,72.1,67.0,63.7,70.4,65.1,60.7,100,94,86,29.96,29.81,12,6,24,0.14
2013-1-13,69.3,64.5,62.2,67.0,63.8,60.8,100,98,87,29.97,29.78,14,6,24,0.02
2013-1-14,66.4,66.4,66.4,66.1,66.1,66.1,99,99,99,30.09,29.93,3,3,5,0.02
2013-1-15,66.4,66.4,66.4,66.1,66.1,66.1,99,99,99,29.98,29.79,3,3,5,0.02
2013-1-16,66.4,66.4,66.4,66.1,66.1,66.1,99,99,99,29.92,29.78,3,3,5,0.02
2013-1-17,66.4,46.0,32.5,66.1,45.7,32.3,100,99,96,30.21,29.70,11,6,30,0.07
2013-1-18,59.4,36.5,30.9,38.2,32.6,30.3,100,89,36,30.39,30.21,7,2,19,0.00
2013-1-19,59.2,43.7,29.7,36.5,30.8,27.0,100,65,31,30.25,30.07,6,2,17,0.00
2013-1-20,60.3,43.4,37.0,39.8,35.2,31.1,91,74,42,30.08,30.05,4,1,11,0.00
2013-1-21,52.0,39.2,30.6,37.3,25.5,15.4,100,61,25,30.09,29.96,11,4,22,0.00
2013-1-22,43.0,29.7,23.0,18.0,15.4,10.7,76,57,28,30.21,30.07,6,2,14,0.00
2013-1-23,58.6,44.5,32.7,39.1,32.4,22.0,76,64,39,30.22,30.04,7,2,11,0.00
2013-1-24,51.3,43.5,35.4,42.6,26.1,11.2,83,54,23,30.20,30.03,9,3,21,0.00
2013-1-25,50.2,43.4,36.0,47.1,33.5,13.9,100,72,37,30.12,29.93,10,2,18,0.07
2013-1-26,61.5,44.5,34.0,41.1,33.9,22.3,100,72,24,30.16,30.02,7,2,12,0.00
2013-1-27,50.9,46.3,41.5,41.2,37.8,34.1,86,73,59,30.22,30.13,3,1,10,0.00
2013-1-28,66.6,53.6,44.1,55.0,47.8,36.0,100,81,63,30.19,30.05,9,3,17,0.00
2013-1-29,67.8,59.8,48.6,66.8,59.2,48.3,100,98,93,30.05,29.65,11,4,20,0.00
2013-1-30,70.3,33.8,0.0,68.6,52.9,26.6,100,57,69,29.80,28.51,18,5,33,0.43
2013-1-31,52.9,39.8,29.5,29.7,26.3,21.1,90,61,31,30.02,29.79,10,4,27,0.00
2013-2-1,41.9,33.3,24.8,34.8,18.6,7.9,82,56,28,30.25,29.98,11,5,27,0.00
2013-2-2,43.2,36.2,23.2,38.0,31.6,17.0,100,84,57,30.18,29.97,6,2,15,0.19
2013-2-3,57.4,42.9,37.8,37.5,35.0,24.5,99,80,29,30.01,29.90,9,4,22,0.19
2013-2-4,52.3,43.3,30.6,35.3,32.1,28.1,96,66,46,29.97,29.81,4,2,7,0.00
2013-2-5,49.3,46.4,45.1,46.9,39.6,33.8,96,78,63,29.89,29.79,5,1,14,0.00
2013-2-6,68.4,50.7,36.7,51.1,39.6,29.8,99,75,25,30.04,29.92,3,1,7,0.01
2013-2-7,52.7,49.2,45.7,49.9,47.4,39.0,100,94,66,29.96,29.79,3,1,12,0.09
2013-2-8,51.6,44.4,32.2,49.6,42.2,31.1,100,92,71,30.10,29.77,10,4,25,0.20
2013-2-9,69.4,45.8,30.0,37.0,32.4,24.1,100,66,19,30.15,30.01,5,1,12,0.00
2013-2-10,57.4,51.5,46.6,57.1,45.7,33.1,99,82,52,30.03,29.80,9,3,20,0.69
2013-2-11,57.4,53.4,45.3,57.1,50.0,38.9,99,89,60,30.02,29.83,5,1,14,0.01
2013-2-12,52.2,44.8,39.4,43.8,39.7,34.3,100,84,53,30.00,29.63,6,1,12,0.34
2013-2-13,46.8,42.3,34.5,45.6,41.2,34.3,100,96,86,29.88,29.55,9,3,22,0.06
2013-2-14,59.2,45.3,32.9,43.5,37.8,32.7,100,77,44,29.94,29.86,6,1,13,0.00
2013-2-15,62.6,42.7,0.0,42.9,37.4,33.0,100,64,35,29.97,0.00,9,3,24,0.00
2013-2-16,0.0,0.0,0.0,35.4,35.4,35.4,0,0,100,0.00,0.00,0,0,0,0.00
2013-2-17,0.0,0.0,0.0,35.4,35.4,35.4,0,0,100,0.00,0.00,0,0,0,0.00
2013-2-18,62.1,53.5,35.8,40.2,30.1,15.6,81,41,31,29.99,29.67,17,9,31,0.07
2013-2-19,54.0,46.6,43.2,46.3,41.5,22.1,99,86,30,29.84,29.66,9,4,27,0.37
2013-2-20,43.9,37.8,27.3,22.7,15.9,-0.4,78,43,18,29.97,29.87,8,3,17,0.00
2013-2-21,60.1,41.0,31.6,46.3,27.7,14.6,99,64,18,29.88,29.60,5,2,12,0.92
2013-2-22,50.0,46.8,44.2,49.7,46.5,44.0,99,99,99,29.79,29.66,4,1,11,0.08
2013-2-23,51.4,46.0,40.5,51.3,45.7,40.0,100,99,96,29.73,29.60,3,1,10,0.19
2013-2-24,66.4,45.8,32.0,42.4,35.7,27.2,100,73,24,29.79,29.67,4,1,11,0.00
2013-2-25,62.4,47.3,42.4,45.2,36.4,30.5,99,67,44,29.68,29.26,6,2,29,0.20
2013-2-26,49.1,45.0,43.7,45.8,43.2,37.3,100,94,70,29.32,29.21,11,4,27,0.30
2013-2-27,57.9,49.5,38.8,36.7,34.5,30.9,80,57,43,29.63,29.54,9,5,19,0.00
2013-2-28,40.1,37.0,33.4,36.2,28.5,26.6,99,72,63,29.77,29.62,8,4,19,0.00
2013-3-1,40.6,35.7,32.5,33.5,30.3,26.8,100,81,71,29.79,29.73,7,2,14,0.00
2013-3-2,35.8,32.6,29.8,32.3,31.1,27.0,99,94,76,29.84,29.72,8,4,20,0.00
2013-3-3,46.0,32.7,26.8,26.8,20.7,14.5,91,64,30,29.85,29.79,8,3,19,0.00
2013-3-4,50.0,34.3,28.6,29.1,21.7,17.0,82,61,37,29.87,29.82,4,0,9,0.00
2013-3-5,61.0,48.0,34.9,59.6,44.7,28.8,100,88,69,29.75,29.41,14,8,36,0.13
2013-3-6,45.3,35.7,29.1,30.5,26.0,20.0,90,68,53,29.97,29.75,12,6,36,0.00
2013-3-7,47.5,33.7,26.6,31.4,28.4,25.8,100,83,53,30.04,29.95,7,2,16,0.00
2013-3-8,69.6,48.7,41.9,28.7,22.8,9.9,57,40,10,29.99,29.94,2,0,4,0.00
2013-3-9,68.9,53.1,39.9,38.4,32.7,27.0,71,48,24,29.98,29.81,8,1,14,0.00
2013-3-10,75.9,59.1,49.6,50.1,39.3,33.3,64,48,30,29.84,29.66,14,4,21,0.00
2013-3-11,62.8,58.0,52.2,54.9,52.1,49.8,100,82,64,29.66,29.53,14,6,25,0.57
2013-3-12,57.6,43.8,32.4,35.9,32.7,31.1,96,68,40,29.89,29.68,6,3,12,0.00
2013-3-13,51.4,42.8,36.9,30.7,24.3,18.3,73,50,28,30.05,29.87,11,4,21,0.00
2013-3-14,59.5,41.9,26.4,24.9,15.9,0.9,79,43,10,30.14,29.97,8,2,12,0.00
2013-3-15,76.5,57.0,36.5,44.0,34.9,19.5,62,45,27,29.97,29.71,11,3,17,0.00
2013-3-16,76.6,64.3,53.4,48.4,44.0,40.4,70,50,29,29.73,29.63,11,5,19,0.00
2013-3-17,69.3,61.2,53.2,56.3,51.6,45.4,99,72,51,29.73,29.60,10,4,17,0.00
2013-3-18,70.0,57.3,53.1,62.8,56.4,52.8,100,97,77,29.63,29.47,17,4,30,0.33
2013-3-19,63.5,51.7,37.4,52.2,34.2,19.9,99,58,25,29.85,29.66,8,3,20,0.00
2013-3-20,59.2,48.0,39.9,26.7,21.1,6.4,57,36,16,29.88,29.70,11,4,22,0.00
2013-3-21,48.7,37.1,26.2,29.2,15.6,3.4,78,47,16,29.80,29.69,8,4,17,0.00
2013-3-22,47.5,41.6,35.1,41.8,33.8,26.7,100,75,58,29.76,29.68,4,0,7,0.14
2013-3-23,55.6,50.2,41.9,52.6,49.8,41.6,100,98,89,29.69,29.41,10,2,23,0.93
2013-3-24,61.9,51.0,37.9,56.8,46.4,27.2,99,85,57,29.53,29.22,15,5,36,0.70
2013-3-25,39.0,35.2,32.7,29.0,24.8,21.2,79,66,51,29.85,29.53,11,6,31,0.01
2013-3-26,40.1,33.3,30.7,29.0,27.0,25.8,86,78,58,30.05,29.83,8,4,20,0.00
2013-3-27,55.0,37.9,28.0,30.1,26.5,21.6,85,65,29,30.10,29.99,10,2,18,0.00
2013-3-28,65.8,44.5,33.1,39.8,29.0,21.1,88,59,18,30.09,29.98,6,1,15,0.00
2013-3-29,64.8,47.3,39.7,38.3,34.7,30.7,85,64,29,30.02,29.98,8,1,17,0.00
2013-3-30,70.3,55.9,46.8,56.4,52.2,38.5,99,89,46,29.90,29.70,6,1,11,0.41
2013-3-31,67.3,57.3,55.2,62.7,56.6,55.0,99,98,78,29.71,29.65,5,3,12,0.12
2013-4-1,72.0,58.7,49.6,56.2,47.8,41.2,99,69,37,29.83,29.63,8,2,14,0.01
2013-4-2,64.6,50.9,41.0,41.3,33.2,20.5,88,55,21,29.93,29.80,7,2,17,0.00
2013-4-3,54.1,46.6,43.0,44.3,33.9,26.7,99,64,36,29.91,29.84,6,2,13,0.30
2013-4-4,45.3,43.5,41.5,45.1,43.3,41.3,99,99,99,29.84,29.68,7,2,11,0.70
2013-4-5,67.1,53.3,41.5,49.1,40.8,31.0,99,69,26,29.85,29.71,9,3,15,0.30
2013-4-6,78.1,66.5,41.5,49.0,37.4,30.1,99,36,18,29.90,29.77,10,4,17,0.00
2013-4-7,60.4,55.5,49.1,50.4,43.8,38.3,87,66,44,29.87,29.80,5,2,9,0.00
2013-4-8,77.7,67.5,57.0,60.6,56.1,50.2,100,68,46,29.83,29.74,10,4,17,0.00
2013-4-9,82.9,72.1,56.1,61.0,59.3,55.3,99,66,45,29.89,29.76,10,4,17,0.00
2013-4-10,85.5,72.9,59.4,61.6,58.6,56.7,97,63,39,29.82,29.60,12,4,19,0.00
2013-4-11,75.6,66.6,56.8,69.1,61.6,56.4,99,85,66,29.63,29.28,13,5,30,0.80
2013-4-12,69.1,51.3,43.2,56.4,45.5,35.0,100,84,32,29.72,29.43,7,3,19,0.00
2013-4-13,68.4,52.5,43.0,46.9,42.0,35.2,97,71,33,29.82,29.70,8,1,15,0.00
2013-4-14,59.9,56.6,51.1,57.0,53.0,44.1,100,88,57,29.75,29.59,12,2,23,0.01
2013-4-15,77.2,61.6,54.9,62.7,58.3,54.4,99,90,58,29.81,29.63,8,1,11,0.00
2013-4-16,82.8,69.4,61.5,70.5,65.6,61.3,100,89,63,29.91,29.81,8,2,14,0.02
2013-4-17,78.4,69.9,66.6,69.3,67.3,65.7,100,92,71,29.92,29.86,3,1,7,0.00
2013-4-18,81.5,72.6,63.1,66.5,63.5,58.2,100,75,47,29.78,29.47,13,7,25,0.00
2013-4-19,72.7,52.8,39.4,68.8,50.1,35.3,100,92,50,29.87,29.42,15,5,30,0.94
2013-4-20,56.5,40.1,33.4,42.7,35.4,30.6,100,86,40,29.99,29.87,7,1,17,0.00
2013-4-21,68.4,56.7,39.7,42.6,39.3,35.9,94,55,32,30.05,29.98,3,2,13,0.00
2013-4-22,54.9,52.1,50.0,43.9,42.5,41.2,77,70,60,30.00,29.94,4,1,8,0.00
2013-4-23,76.5,63.5,52.0,54.3,49.2,40.1,88,62,40,29.91,29.77,8,2,14,0.00
2013-4-24,65.5,55.6,46.4,62.2,54.0,44.2,100,95,70,29.97,29.75,9,4,24,0.22
2013-4-25,52.7,43.7,38.7,44.3,40.8,38.4,100,90,63,30.05,29.95,5,3,15,0.00
2013-4-26,77.9,66.0,39.9,48.5,40.4,26.8,100,44,17,30.10,29.93,6,2,17,0.00
2013-4-27,75.2,60.1,54.3,65.9,56.2,47.1,100,88,57,30.03,29.75,8,2,13,0.06
2013-4-28,63.0,60.7,59.5,62.7,60.5,59.3,99,99,99,29.80,29.70,6,2,14,0.86
2013-4-29,73.8,63.3,56.7,63.0,58.9,56.3,99,87,57,29.76,29.71,2,1,8,0.01
2013-4-30,83.5,67.3,52.5,64.1,55.9,52.2,99,72,35,29.79,29.68,6,1,8,0.00
2013-5-1,73.0,66.7,61.9,63.0,59.8,54.9,100,79,65,29.88,29.78,4,1,8,0.00
2013-5-2,68.5,63.3,58.3,62.1,58.8,55.1,92,85,76,29.89,29.80,5,2,8,0.00
2013-5-3,72.1,63.2,59.0,59.8,58.5,56.3,100,86,59,29.80,29.61,8,2,15,0.26
2013-5-4,57.4,44.5,40.8,57.1,43.3,40.6,100,96,82,29.71,29.60,7,3,17,1.10
2013-5-5,62.2,50.5,41.9,52.6,46.8,41.6,99,88,70,29.62,29.56,4,1,8,0.01
2013-5-6,61.9,51.3,47.3,56.0,50.5,47.0,100,97,73,29.65,29.52,7,2,13,1.24
2013-5-7,70.3,51.4,43.9,56.6,48.7,39.1,99,92,54,29.73,29.62,3,1,10,0.01
2013-5-8,81.0,65.1,51.1,62.3,56.3,50.8,100,77,42,29.82,29.73,4,1,9,0.00
2013-5-9,82.9,70.2,57.6,65.0,59.6,56.8,100,73,42,29.88,29.76,8,1,11,0.00
2013-5-10,68.9,64.5,61.0,62.7,61.3,59.8,99,90,78,29.81,29.72,8,4,17,0.05
2013-5-11,67.1,63.8,62.2,66.8,63.4,59.9,99,99,92,29.72,29.67,3,1,8,0.02
2013-5-12,69.4,57.7,44.4,53.8,39.7,32.1,99,56,25,29.89,29.75,9,3,15,0.01
2013-5-13,73.4,58.8,39.0,52.6,40.1,33.0,99,57,26,30.00,29.89,5,1,13,0.00
2013-5-14,81.9,66.1,48.2,57.7,53.1,45.8,99,67,40,29.96,29.83,8,3,14,0.00
2013-5-15,83.8,73.9,57.4,60.0,57.9,54.9,95,60,39,29.92,29.85,4,2,11,0.00
2013-5-16,84.4,71.5,62.2,65.3,59.2,47.8,93,68,31,29.81,29.72,8,2,14,0.00
2013-5-17,77.9,69.5,63.5,70.4,67.3,60.5,100,93,76,29.82,29.72,4,2,9,0.51
2013-5-18,72.7,67.0,65.5,72.2,66.7,65.2,99,99,99,29.78,29.72,4,1,9,0.01
2013-5-19,83.7,72.6,63.9,76.9,70.4,63.6,99,94,69,29.81,29.74,7,2,10,0.45
2013-5-20,67.1,63.4,60.6,66.7,63.1,60.3,99,99,99,29.81,29.75,2,0,4,0.00
2013-5-21,85.5,77.7,64.4,75.5,71.6,64.1,99,82,63,29.78,29.71,6,2,13,0.00
2013-5-22,83.3,74.7,66.4,72.6,67.8,63.8,99,81,57,29.70,29.60,7,2,11,0.05
2013-5-23,84.2,74.6,63.7,67.3,61.6,58.0,99,67,44,29.81,29.67,8,2,12,0.00
2013-5-24,77.7,64.9,52.5,59.8,52.9,45.3,100,69,32,30.00,29.80,8,2,14,0.00
2013-5-25,83.7,65.5,50.4,54.8,50.4,45.5,99,64,27,30.05,29.93,4,1,6,0.00
2013-5-26,90.1,70.3,51.8,61.9,53.8,46.2,99,63,22,29.99,29.88,4,1,6,0.00
2013-5-27,76.3,64.4,58.8,67.2,61.4,58.4,100,91,67,29.93,29.88,2,0,4,0.00
2013-5-28,86.9,76.8,65.5,67.2,62.5,57.9,85,62,49,29.89,29.81,8,3,18,0.00
2013-5-29,82.2,70.1,64.0,68.8,62.5,59.8,88,77,63,29.91,29.81,4,1,11,0.00
2013-5-30,85.1,75.9,69.1,71.8,68.3,64.2,89,78,61,29.92,29.80,8,2,14,0.00
2013-5-31,86.4,75.0,69.4,71.7,68.4,66.1,97,81,51,29.88,29.76,8,2,13,0.00
2013-6-1,83.8,74.3,68.2,73.1,69.6,67.1,100,86,69,29.80,29.75,8,3,17,0.00
2013-6-2,85.6,73.8,66.4,73.8,68.6,65.3,99,86,52,29.72,29.64,8,1,14,0.04
2013-6-3,87.3,73.1,63.1,71.9,64.5,59.8,99,78,43,29.73,29.64,4,1,14,0.00
2013-6-4,82.8,67.0,60.8,68.3,63.5,60.5,99,90,51,29.77,29.71,3,0,8,0.00
2013-6-5,79.5,71.1,67.3,76.7,70.5,66.8,100,98,86,29.74,29.59,5,1,14,0.34
2013-6-6,85.6,78.7,67.3,73.2,71.5,67.0,99,80,64,29.61,29.49,4,1,6,0.34
2013-6-7,82.0,71.8,67.1,74.3,70.3,66.8,99,95,70,29.62,29.47,2,0,7,0.26
2013-6-8,85.1,76.2,68.9,72.6,67.3,62.1,100,77,49,29.80,29.73,4,1,8,0.26
2013-6-9,85.8,73.7,67.6,76.2,71.2,67.2,100,93,65,29.81,29.71,7,2,14,0.00
2013-6-10,87.4,79.9,66.2,72.4,70.1,65.9,99,74,55,29.75,29.66,8,4,11,0.11
2013-6-11,95.2,84.3,72.3,75.5,73.2,71.0,100,72,46,29.80,29.73,4,1,8,0.00
2013-6-12,97.2,84.0,72.5,78.8,73.9,66.4,99,76,37,29.84,29.73,4,1,11,0.00
2013-6-13,91.2,81.3,72.3,79.3,74.9,68.3,99,82,63,29.73,29.55,8,2,17,0.04
2013-6-14,88.3,76.0,63.9,68.3,63.4,56.6,99,69,35,29.77,29.64,5,2,14,0.00
2013-6-15,88.5,72.2,60.4,72.4,64.2,60.0,100,80,46,29.84,29.75,6,1,11,0.00
2013-6-16,90.0,75.7,64.8,74.6,70.1,64.5,99,85,58,29.85,29.74,8,2,11,0.00
2013-6-17,87.8,71.5,68.9,78.3,70.5,68.6,100,97,56,29.77,29.66,3,0,6,0.54
2013-6-18,85.5,74.2,68.2,78.5,70.7,67.7,100,90,64,29.68,29.60,4,1,21,0.02
2013-6-19,92.1,77.7,65.5,71.5,68.9,65.2,100,78,45,29.81,29.70,3,0,5,0.00
2013-6-20,91.8,78.6,68.2,75.8,69.5,65.4,99,77,48,29.94,29.82,7,1,10,0.02
2013-6-21,91.6,75.7,65.8,74.7,68.6,65.6,100,82,44,29.97,29.86,5,0,8,0.01
2013-6-22,86.4,72.7,67.5,71.6,69.0,65.8,100,90,55,29.95,29.88,4,0,10,0.00
2013-6-23,90.0,77.6,64.9,73.1,69.5,64.7,99,79,51,29.92,29.82,4,1,7,0.00
2013-6-24,88.9,78.2,68.4,75.3,72.2,68.1,99,84,60,29.94,29.83,8,2,11,0.00
2013-6-25,89.6,76.2,71.6,78.7,73.5,71.3,100,92,62,29.89,29.76,6,1,14,0.01
2013-6-26,91.6,80.3,70.2,79.0,73.3,69.9,100,81,57,29.81,29.66,6,2,15,0.00
2013-6-27,96.6,81.2,69.1,80.9,73.9,68.8,100,81,47,29.73,29.58,6,2,15,0.20
2013-6-28,90.9,79.3,72.5,74.4,72.0,67.0,100,81,46,29.62,29.46,6,1,18,0.00
2013-6-29,91.4,78.0,70.9,75.7,70.1,56.7,99,82,34,29.48,29.47,3,1,12,0.00
2013-6-30,89.1,82.1,63.1,68.4,63.0,57.6,99,54,36,29.50,29.46,4,1,12,0.00
2013-7-1,86.4,75.3,63.7,73.4,65.9,63.1,99,76,46,29.65,29.52,6,1,10,0.01
2013-7-2,88.3,75.2,63.3,72.9,65.8,62.3,99,76,42,29.79,29.65,7,1,13,0.00
2013-7-3,86.4,73.9,67.1,74.6,70.8,66.8,99,91,61,29.85,29.77,5,1,9,0.11
2013-7-4,78.6,71.6,69.4,73.9,70.5,69.1,99,96,81,29.85,29.75,6,2,13,0.24
2013-7-5,76.8,71.5,69.1,76.4,71.2,68.8,99,99,99,30.55,29.79,7,2,13,0.14
2013-7-6,70.9,70.9,70.9,70.6,70.6,70.6,99,99,99,29.86,29.81,0,0,2,0.14
2013-7-7,86.5,79.6,72.5,77.6,75.5,72.2,99,88,71,29.90,29.83,6,2,9,0.01
2013-7-8,89.6,77.3,70.2,79.5,75.0,69.9,99,93,64,29.93,29.85,6,1,10,0.00
2013-7-9,93.6,81.9,73.2,81.5,77.0,72.9,100,87,56,29.93,29.82,3,1,4,0.38
2013-7-10,89.8,77.8,70.0,79.4,74.4,69.5,100,90,64,29.84,29.69,7,2,21,0.28
2013-7-11,93.0,76.0,68.9,79.6,73.5,68.6,100,93,60,29.78,29.62,4,1,14,0.38
2013-7-12,88.9,77.5,69.8,76.4,70.8,65.3,99,82,53,29.72,29.65,6,2,17,0.00
2013-7-13,89.4,76.1,63.0,74.7,70.2,62.7,100,84,57,29.80,29.69,3,1,10,0.00
2013-7-14,84.6,74.6,71.1,76.9,72.7,70.8,99,94,70,29.85,29.78,3,1,11,0.08
2013-7-15,92.1,80.2,73.0,75.1,72.9,70.1,99,81,50,30.00,29.89,4,1,8,0.00
2013-7-16,95.0,80.3,71.4,75.7,72.5,69.0,99,80,44,30.05,29.97,4,1,7,0.00
2013-7-17,98.1,82.4,69.8,84.3,73.9,69.5,99,78,46,30.05,29.90,4,1,16,0.35
2013-7-18,94.5,78.7,70.0,75.6,72.1,69.7,100,83,50,29.97,29.80,6,1,18,0.30
2013-7-19,96.8,80.7,69.8,82.5,73.4,69.5,99,81,43,29.87,29.71,6,1,10,0.00
2013-7-20,91.8,78.9,70.9,79.8,74.2,70.6,99,87,57,29.79,29.65,4,1,12,0.00
2013-7-21,89.1,73.4,70.2,78.6,72.5,69.9,99,97,64,29.78,29.70,6,1,12,0.33
2013-7-22,84.7,74.3,70.0,80.5,72.0,69.7,100,93,65,29.75,29.65,6,2,13,0.01
2013-7-23,71.6,70.6,70.2,71.3,70.3,69.9,99,99,99,29.73,29.68,4,2,8,0.00
2013-7-24,88.5,78.1,69.3,80.1,74.3,69.0,99,89,63,29.66,29.61,2,0,6,0.01
2013-7-25,89.1,77.2,68.0,73.2,67.8,61.4,100,76,42,29.78,29.64,4,1,8,0.00
2013-7-26,90.3,76.5,63.0,72.3,68.1,62.7,99,79,44,29.81,29.73,4,1,6,0.00
2013-7-27,87.3,77.5,68.2,74.8,69.2,65.0,100,77,49,29.73,29.65,4,1,10,0.00
2013-7-28,90.5,77.3,67.8,73.8,70.1,67.0,100,81,50,29.82,29.68,2,0,10,0.00
2013-7-29,87.8,73.4,63.9,69.0,64.0,49.3,100,77,30,29.92,29.81,3,0,9,0.00
2013-7-30,64.6,64.5,64.4,64.3,64.2,64.1,99,99,99,29.91,29.91,0,0,0,0.00
2013-7-31,88.2,76.1,70.3,79.6,73.7,70.0,99,93,72,29.86,29.68,6,2,15,1.57
2013-8-1,89.8,77.3,70.5,78.9,71.9,70.3,100,85,56,29.76,29.69,4,2,14,1.57
2013-8-6,75.0,74.6,74.1,74.7,74.3,73.8,99,99,99,29.73,29.72,3,3,6,0.00
2013-8-7,92.5,74.3,70.7,81.8,72.6,70.4,99,95,61,29.76,29.70,7,1,11,0.33
2013-8-8,92.5,76.7,70.7,82.2,74.1,70.4,99,93,68,29.78,29.70,5,1,11,0.01
2013-8-9,94.1,81.3,71.4,79.8,76.1,71.1,99,86,60,29.83,29.74,7,1,11,0.00
2013-8-10,88.7,77.0,71.6,80.8,74.9,71.3,99,94,67,29.90,29.81,7,1,14,7.82
2013-8-11,93.7,84.8,73.2,78.1,75.8,72.7,99,77,53,29.90,29.81,4,1,7,7.82
2013-8-12,91.9,80.1,71.8,80.1,75.6,71.5,100,88,59,29.86,29.73,5,1,10,0.04
2013-8-13,89.4,79.5,72.1,77.6,74.2,71.7,99,85,56,29.75,29.66,4,2,9,0.00
2013-8-14,73.9,73.1,72.3,73.6,72.8,72.0,99,99,99,29.70,29.68,2,0,4,0.00
2013-8-16,73.6,67.8,64.8,67.4,65.0,62.1,100,91,75,29.83,29.76,2,0,4,0.00
2013-8-17,66.7,66.6,66.4,66.8,66.3,65.9,100,99,97,29.83,29.81,1,0,4,0.00
2013-8-18,78.4,70.6,65.7,72.8,68.8,65.4,99,94,76,29.90,29.81,4,1,8,0.07
2013-8-22,90.9,76.0,69.8,79.6,73.9,69.5,100,94,61,29.90,29.80,2,0,4,0.96
2013-8-23,95.0,83.5,71.6,76.8,73.7,70.9,99,76,48,29.83,29.75,3,1,6,0.01
2013-8-24,93.2,81.6,71.4,76.1,73.7,71.1,99,79,54,29.96,29.81,2,0,6,0.00
2013-8-25,90.9,76.3,65.7,72.2,67.9,63.2,99,79,40,30.07,29.96,4,1,7,0.00
2013-8-26,90.9,74.7,62.2,69.3,64.4,59.9,100,76,38,30.05,29.89,4,0,8,0.00
2013-8-27,93.6,76.1,61.5,71.1,66.3,61.2,100,77,39,29.91,29.80,3,0,7,0.00
2013-8-28,95.0,79.4,66.9,72.9,69.9,66.6,100,77,41,29.85,29.76,3,0,8,0.00
2013-8-29,95.9,81.4,68.2,75.8,71.6,67.9,100,76,45,29.83,29.72,5,1,9,0.00
2013-8-30,97.9,80.4,70.9,78.9,74.3,70.6,99,84,49,29.76,29.67,3,0,6,0.00
2013-8-31,96.4,81.3,71.8,78.9,74.2,71.5,99,82,47,29.71,29.61,4,1,8,0.01
2013-9-1,95.2,81.2,73.2,79.2,74.0,68.1,99,82,42,29.69,29.60,5,1,12,0.00
2013-9-2,90.3,78.3,69.1,75.1,72.8,68.8,100,85,52,29.72,29.61,3,1,8,0.35
2013-9-3,92.8,78.8,66.7,75.3,70.3,65.7,99,79,41,29.75,29.65,3,0,8,0.00
2013-9-4,91.8,76.0,64.6,69.3,65.9,60.8,99,77,38,29.86,29.74,3,0,7,0.01
2013-9-5,93.6,80.1,63.0,70.9,66.8,61.4,100,69,37,29.91,29.83,2,0,9,0.00
2013-9-6,96.3,75.6,65.7,72.5,68.3,64.8,100,82,39,29.90,29.79,3,0,8,0.00
2013-9-7,68.7,68.7,68.7,68.5,68.5,68.5,99,99,99,29.82,29.82,0,0,0,0.00
2013-9-8,98.4,79.8,67.6,74.5,70.7,67.3,99,79,40,29.78,29.70,4,0,5,0.00
2013-9-9,92.5,79.5,69.4,75.2,72.7,69.1,99,82,51,29.84,29.75,3,0,4,0.00
2013-9-10,95.4,82.6,72.3,76.7,72.6,68.8,99,75,45,29.94,29.84,5,1,8,0.00
2013-9-11,95.5,83.3,69.1,71.7,68.9,65.9,99,67,40,29.96,29.85,3,1,6,0.00
2013-9-12,95.2,79.2,65.7,73.7,67.8,63.2,99,74,36,29.84,29.67,5,1,11,0.02
2013-9-13,85.8,72.9,61.9,69.0,57.9,49.1,99,63,30,29.71,29.62,6,2,13,0.00
2013-9-14,61.9,61.5,61.2,55.3,55.1,55.0,80,80,79,29.71,29.70,2,1,7,0.00
2013-9-15,87.4,70.0,58.8,69.4,62.1,58.5,99,80,41,29.87,29.80,4,1,8,0.00
2013-9-16,90.5,77.0,62.1,71.9,62.3,57.3,99,66,33,29.91,29.83,5,1,8,0.00
2013-9-17,90.1,74.5,64.0,70.1,67.5,63.2,99,81,52,29.91,29.83,4,1,7,0.00
2013-9-18,86.2,72.9,64.0,69.3,65.9,62.9,99,81,53,29.94,29.83,7,1,9,0.00
2013-9-19,91.0,74.1,62.8,68.0,65.8,62.5,100,80,44,29.91,29.80,4,1,8,0.00
2013-9-20,88.7,77.0,63.9,71.1,67.1,63.6,99,74,46,29.81,29.62,5,2,8,0.01
2013-9-21,72.1,64.5,58.8,71.2,64.0,58.6,100,98,91,29.60,29.52,6,1,10,0.05
2013-9-22,78.4,59.0,54.1,59.6,55.4,53.9,99,90,47,29.62,29.56,4,1,14,0.01
2013-9-23,90.0,72.3,55.8,64.5,60.9,55.5,100,73,34,29.73,29.63,4,1,9,0.00
2013-9-24,71.4,67.1,62.6,70.8,66.8,62.3,100,99,99,29.73,29.60,4,1,7,0.01
2013-9-25,83.1,74.6,67.3,72.7,70.0,67.0,99,87,66,29.61,29.55,2,0,4,0.01
2013-9-26,88.2,75.6,63.9,67.3,64.4,61.5,99,72,41,29.75,29.67,4,1,8,0.00
2013-9-27,87.8,75.2,60.4,67.8,59.8,54.6,99,65,33,29.88,29.78,3,1,7,0.00
2013-9-28,83.8,68.3,57.2,62.0,58.6,54.3,99,76,37,29.95,29.82,4,0,8,0.00
2013-9-29,82.6,65.8,55.0,61.2,58.9,54.8,99,81,42,29.87,29.75,5,0,8,0.00
2013-9-30,82.2,67.1,61.5,63.4,61.0,59.3,99,82,52,29.82,29.72,4,0,7,0.00
2013-10-1,90.0,74.3,60.8,69.0,66.0,60.5,99,79,43,29.88,29.78,4,1,7,0.00
2013-10-2,88.5,78.1,68.2,68.6,66.2,63.2,100,70,43,29.89,29.80,2,0,4,0.00
2013-10-3,87.3,74.9,65.1,69.1,66.3,63.6,99,78,48,29.87,29.77,7,1,10,0.00
2013-10-4,89.2,77.5,64.0,71.4,68.8,63.8,99,77,51,29.89,29.80,4,1,7,0.00
2013-10-5,91.4,80.3,68.2,70.8,68.9,67.5,99,70,47,29.85,29.71,5,1,9,0.00
2013-10-6,81.7,73.6,68.4,73.2,69.8,67.5,100,88,69,29.71,29.57,10,3,13,0.04
2013-10-7,73.4,62.2,52.5,56.7,51.0,45.6,99,71,38,29.78,29.65,8,2,14,0.05
2013-10-8,82.9,65.5,50.7,63.9,56.4,48.7,95,75,41,29.84,29.73,4,1,8,0.00
2013-10-9,85.8,68.8,60.8,63.6,56.0,49.8,100,66,36,29.93,29.82,4,1,11,0.00
2013-10-10,86.5,69.1,59.4,62.9,60.4,55.6,100,79,37,29.85,29.77,2,0,6,0.00
2013-10-11,86.7,69.9,57.9,60.6,58.5,53.3,100,73,32,29.80,29.74,4,1,6,0.01
2013-10-12,86.4,70.0,57.0,62.6,59.6,56.5,100,76,37,29.85,29.76,5,1,9,0.00
2013-10-13,61.2,61.1,61.0,60.9,60.8,60.7,99,99,99,29.86,29.86,0,0,0,0.00
2013-10-14,84.9,67.4,57.4,65.3,61.2,57.1,100,84,43,29.95,29.83,4,0,8,0.00
2013-10-15,73.8,63.4,60.3,63.0,61.1,60.0,100,93,63,29.87,29.76,4,0,7,0.00
2013-10-16,72.5,71.1,67.6,67.7,66.3,65.3,99,85,80,29.74,29.69,5,3,8,0.04
2013-10-17,65.3,60.6,54.0,64.8,60.2,53.7,100,99,97,29.74,29.67,8,2,11,0.02
2013-10-18,73.4,61.8,53.6,53.5,51.5,48.9,99,73,42,29.76,29.70,3,1,6,0.01
2013-10-19,74.1,58.2,45.5,57.1,53.0,45.2,99,85,50,29.77,29.67,7,1,14,0.00
2013-10-20,75.9,54.9,42.3,44.8,40.2,24.9,99,69,17,29.81,29.75,4,0,6,0.00
2013-10-21,45.0,44.2,41.7,44.7,43.9,41.5,99,99,99,29.85,29.77,0,0,2,0.00
2013-10-22,75.4,60.7,52.9,56.5,53.4,50.9,100,79,44,29.76,29.62,4,1,8,0.00
2013-10-23,63.9,50.9,39.6,51.0,41.8,31.4,100,76,32,29.84,29.62,5,2,13,0.00
2013-10-24,72.9,50.0,36.1,44.5,39.9,35.9,99,73,26,30.01,29.84,7,1,15,0.00
2013-10-25,60.1,43.3,30.2,36.9,28.6,19.4,100,62,21,30.17,30.01,7,1,11,0.00
2013-10-26,66.6,41.1,30.4,39.3,30.8,17.5,100,76,16,30.04,29.87,7,1,24,0.00
2013-10-27,54.5,50.8,47.8,46.2,41.9,38.6,81,72,63,29.87,29.82,2,0,4,0.00
2013-10-28,67.1,61.4,54.7,60.2,58.1,54.4,100,90,75,29.98,29.85,4,1,7,0.05
2013-10-29,77.9,65.3,58.1,62.3,60.5,57.8,100,86,56,30.02,29.94,5,1,8,0.01
2013-10-30,79.0,66.7,57.0,60.1,57.5,55.8,99,73,47,29.99,29.84,5,2,9,0.00
2013-10-31,74.8,67.7,61.3,65.5,61.3,55.2,92,80,71,29.84,29.49,13,7,23,0.00
2013-11-1,75.7,64.4,54.9,55.8,46.6,41.7,71,55,32,29.61,29.50,4,1,9,0.01
2013-11-2,68.9,55.7,45.9,49.5,42.1,31.5,100,65,27,29.86,29.59,5,1,13,0.00
2013-11-3,69.3,47.6,38.7,42.3,38.1,32.0,99,75,26,30.01,29.86,4,0,8,0.00
2013-11-4,72.0,54.3,41.4,42.7,37.9,28.6,93,59,21,30.10,29.98,6,2,17,0.00
2013-11-5,56.5,50.2,46.9,37.9,37.0,35.4,69,61,46,30.13,30.07,3,2,12,0.00
2013-11-6,75.4,63.4,50.9,62.3,56.0,41.3,97,78,59,29.99,29.80,8,3,12,0.00
2013-11-7,59.4,46.6,36.9,36.7,31.6,29.5,79,58,36,30.02,29.93,4,1,11,0.05
2013-11-8,66.9,46.0,33.3,39.0,31.6,26.2,92,63,22,30.09,29.96,5,1,8,0.00
2013-11-9,60.3,49.5,39.4,44.1,37.6,31.6,96,67,34,30.04,29.93,4,1,8,0.00
2013-11-10,59.7,47.7,44.8,44.4,42.9,41.0,91,84,57,30.04,29.97,3,0,11,0.00
2013-11-11,77.7,53.6,36.9,41.8,28.8,13.3,99,52,10,30.02,29.89,2,0,4,0.00
2013-11-12,54.7,43.9,30.7,44.4,24.4,10.9,85,48,28,30.22,29.89,11,5,33,0.02
2013-11-13,55.0,33.7,25.2,20.9,15.3,-1.4,73,52,10,30.33,30.15,8,1,12,0.00
2013-11-14,65.1,40.0,26.1,28.9,16.6,-0.4,89,47,10,30.17,29.97,6,1,8,0.00
2013-11-15,57.9,49.3,41.7,52.1,37.9,22.9,99,66,47,29.95,29.80,3,1,5,0.21
2013-11-16,68.2,62.2,61.2,62.1,59.8,59.4,95,92,81,29.83,29.77,5,3,14,0.02
2013-11-17,61.3,41.2,0.0,61.0,60.6,59.7,100,67,95,29.77,29.64,6,2,12,0.00
2013-11-18,69.6,57.2,0.0,60.7,39.4,20.8,89,48,17,29.87,29.64,8,3,21,0.01
2013-11-19,63.7,47.1,38.1,31.6,25.6,8.8,69,46,14,29.93,29.83,8,3,21,0.00
2013-11-20,66.2,51.0,36.3,38.7,34.9,28.2,79,56,29,29.99,29.86,5,2,12,0.00
2013-11-21,62.4,56.4,51.3,56.6,47.6,38.1,93,73,59,30.04,29.95,6,1,13,0.00
2013-11-22,63.9,59.3,54.3,63.4,58.4,52.1,100,97,86,30.02,29.91,5,1,9,0.04
2013-11-23,49.5,42.2,30.6,44.8,32.6,16.4,100,70,47,30.10,29.99,10,6,24,0.00
2013-11-24,47.7,32.5,23.2,21.8,14.5,2.0,82,52,16,30.24,30.09,9,3,21,0.00
2013-11-25,42.8,35.9,28.6,36.2,22.2,-29.7,100,61,29,30.12,29.81,5,1,14,0.21
2013-11-26,36.5,36.5,36.5,36.2,36.2,36.2,99,99,99,29.82,29.50,1,1,7,0.21
2013-11-27,38.8,29.3,22.8,31.1,16.3,12.2,89,59,42,30.05,29.62,11,4,24,0.23
2013-11-28,52.2,31.8,18.5,18.0,13.4,2.8,83,53,13,30.18,30.03,3,1,10,0.00
2013-11-29,63.9,40.0,25.0,33.5,22.1,13.2,100,56,15,30.26,30.15,4,1,11,0.00
2013-11-30,59.2,44.0,33.8,30.3,27.3,20.2,78,55,23,30.22,29.99,5,1,13,0.00
2013-12-1,59.4,43.4,33.6,38.1,31.8,28.5,84,65,38,29.99,29.82,4,1,11,0.00
2013-12-2,50.7,46.8,46.0,46.5,46.3,39.8,99,98,66,29.70,29.51,2,2,3,0.19
2013-12-3,46.8,46.8,46.8,46.5,46.5,46.5,99,99,99,29.58,29.50,2,2,3,0.19
2013-12-4,46.8,46.6,0.0,46.5,46.5,46.5,99,99,99,29.69,29.57,2,2,3,0.19
2013-12-5,0.0,0.0,0.0,46.5,46.5,46.5,0,0,100,29.75,29.64,0,0,0,0.19
2013-12-6,0.0,0.0,0.0,46.5,46.5,46.5,0,0,100,29.95,29.66,0,0,0,0.19
2013-12-7,0.0,0.0,0.0,46.5,46.5,46.5,0,0,100,30.11,29.93,0,0,0,0.19
2013-12-8,0.0,0.0,0.0,46.5,46.5,46.5,0,0,100,29.96,29.86,0,0,0,0.19
2013-12-9,0.0,0.0,0.0,46.5,46.5,46.5,0,0,100,29.86,29.74,0,0,0,0.19
2013-12-10,75.7,16.6,0.0,57.2,50.2,46.5,66,16,50,30.05,29.73,3,1,4,0.19
2013-12-11,0.0,0.0,0.0,56.9,56.9,56.9,0,0,100,30.00,30.00,0,0,0,0.00
2013-12-12,43.2,30.7,23.5,27.4,17.5,6.8,91,60,22,30.13,29.98,8,2,12,0.19
2013-12-13,46.4,38.2,25.5,32.3,26.8,17.3,100,66,42,29.98,29.70,2,0,6,0.00
2013-12-14,45.7,45.4,41.4,34.2,34.1,30.7,75,64,62,29.72,29.41,3,2,8,0.00
2013-12-15,45.7,45.5,0.0,34.2,34.2,34.2,64,64,64,29.84,29.57,2,2,8,0.00
2013-12-16,0.0,0.0,0.0,34.2,34.2,34.2,0,0,100,29.88,29.78,0,0,0,0.00
2013-12-18,0.0,0.0,0.0,34.2,34.2,34.2,0,0,100,29.97,29.86,0,0,0,0.00
2013-12-22,0.0,0.0,0.0,34.2,34.2,34.2,0,0,100,29.70,29.57,0,0,0,0.00
2013-12-24,0.0,0.0,0.0,34.2,34.2,34.2,0,0,100,30.11,29.96,0,0,0,0.00
2013-12-25,0.0,0.0,0.0,34.2,34.2,34.2,0,0,100,30.03,29.91,0,0,0,0.00
2013-12-26,75.7,66.3,33.1,57.2,52.2,26.0,75,61,50,29.96,29.73,3,2,4,0.00
2013-12-27,61.0,43.6,33.4,32.8,27.4,11.9,77,55,15,30.07,29.94,4,0,11,0.01
2013-12-28,43.2,40.2,35.8,40.5,37.7,29.3,100,91,73,29.94,29.50,2,1,10,0.12
2013-12-29,58.3,41.2,0.0,43.5,39.9,35.0,100,85,45,29.67,29.47,3,2,9,0.01
2013-12-30,45.3,39.1,34.3,43.7,37.3,34.1,100,94,77,29.84,29.65,6,2,14,0.00
2013-12-31,46.4,35.1,30.4,34.1,29.5,25.8,100,82,48,30.04,29.83,6,2,15,0.00
2014-1-1,56.1,40.7,29.5,41.8,33.8,28.4,100,79,42,29.91,29.64,6,1,11,0.00
2014-1-2,45.3,37.4,21.2,44.5,34.2,10.9,100,89,61,29.87,29.46,10,6,37,0.08